This is the latest recevied weather packets stored in our database for station/object NR0A-4. If no packets are shown the sender has not sent any weather packets the latest 10 day(s).
| Time | Temp. | Humidity | Pressure | Rain* | Wind** | Luminosity | Snow |
|---|---|---|---|---|---|---|---|
| 1777934405 | 17.78° C | 36% | 1006.1 hPa | 0 mm | - | 279 W/m² | - |
| 1777934105 | 17.78° C | 36% | 1006.2 hPa | 0 mm | - | 186 W/m² | - |
| 1777933804 | 17.78° C | 35% | 1006.1 hPa | 0 mm | - | 251 W/m² | - |
| 1777933505 | 18.33° C | 34% | 1006 hPa | 0 mm | - | 243 W/m² | - |
| 1777933204 | 18.89° C | 33% | 1005.8 hPa | 0 mm | - | 234 W/m² | - |
| 1777932904 | 19.44° C | 32% | 1005.7 hPa | 0 mm | - | 385 W/m² | - |
| 1777932605 | 20° C | 32% | 1005.5 hPa | 0 mm | - | 559 W/m² | - |
| 1777932305 | 20° C | 32% | 1005.4 hPa | 0 mm | - | 559 W/m² | - |
| 1777932005 | 20° C | 34% | 1005.2 hPa | 0 mm | - | 582 W/m² | - |
| 1777931704 | 20° C | 33% | 1005.2 hPa | 0 mm | - | 571 W/m² | - |
| 1777931404 | 19.44° C | 32% | 1005.2 hPa | 0 mm | - | 369 W/m² | - |
| 1777931104 | 20° C | 32% | 1005.2 hPa | 0 mm | - | 297 W/m² | - |
| 1777930804 | 20° C | 32% | 1005 hPa | 0 mm | - | 410 W/m² | - |
| 1777930505 | 20° C | 32% | 1004.9 hPa | 0 mm | - | 334 W/m² | - |
| 1777930205 | 21.11° C | 30% | 1004.8 hPa | 0 mm | - | 264 W/m² | - |
| 1777929904 | 21.11° C | 30% | 1004.9 hPa | 0 mm | - | 378 W/m² | - |
| 1777929605 | 21.11° C | 31% | 1004.8 hPa | 0 mm | - | 671 W/m² | - |
| 1777929305 | 21.11° C | 30% | 1004.8 hPa | 0 mm | - | 670 W/m² | - |
| 1777929004 | 21.11° C | 29% | 1004.9 hPa | 0 mm | - | 679 W/m² | - |
| 1777928704 | 21.11° C | 30% | 1005 hPa | 0 mm | - | 689 W/m² | - |
| 1777928404 | 21.11° C | 30% | 1005.1 hPa | 0 mm | - | 701 W/m² | - |
| 1777928104 | 21.11° C | 31% | 1004.9 hPa | 0 mm | - | 714 W/m² | - |
| 1777927804 | 21.11° C | 28% | 1004.9 hPa | 0 mm | - | 722 W/m² | - |
| 1777927504 | 21.67° C | 29% | 1004.9 hPa | 0 mm | - | 733 W/m² | - |
| 1777927204 | 21.67° C | 31% | 1004.9 hPa | 0 mm | - | 744 W/m² | - |
* Rain latest hour (hover to see other rain measurements)
** Current wind speed in m/s (hover to see current wind gust speed)